Skip Page Navigation
NASA JPL Caltech
NASA Logo - Jet Propulsion Laboratory + View the NASA Portal
+ Near-Earth Object (NEO) Program
Search JPL
JPL Home Earth Solar System Stars & Galaxies Technology
JPL Solar System Dynamics
BODIES ORBITS EPHEMERIDES TOOLS PHYSICAL DATA DISCOVERY FAQ SITE MAP
JPL Small-Body Database Browser
Search: [ help ]  
281698 (2008 WU63)
Classification: Main-belt Asteroid          SPK-ID: 2281698
Ephemeris | Orbit Diagram | Orbital Elements | Physical Parameters | Discovery Circumstances ]

[ hide orbit diagram ]
Orbit Diagram
Note: Make sure you have Java enabled on your browser to see the applet. This applet is provided as a 3D orbit visualization tool. The applet was implemented using 2-body methods, and hence should not be used for determining accurate long-term trajectories (over several years or decades) or planetary encounter circumstances. For accurate long-term ephemerides, please instead use our Horizons system.
Orbit Viewer

Additional Notes: the orbits shown in the applet are color coded. The planets are white lines, and the asteroid/comet is a blue line. The bright white line indicates the portion of the orbit that is above the ecliptic plane, and the darker portion is below the ecliptic plane. Likewise for the asteroid/comet orbit, the light blue indicates the portion above the ecliptic plane, and the dark blue the portion below the ecliptic plane.

Orbit Viewer applet originally written and kindly provided by Osamu Ajiki (AstroArts), and further modified by Ron Baalke (JPL).


Orbital Elements at Epoch 2456400.5 (2013-Apr-18.0) TDB
Reference: MPO251759 (heliocentric ecliptic J2000)
 Element Value Uncertainty (1-sigma)   Units 
e 0.2108718 n/a  
a 2.4376390 n/a AU
q 1.9236097 n/a AU
i 17.28098 n/a deg
node 74.88144 n/a deg
peri 224.42281 n/a deg
M 137.17089 n/a deg
tp 2455870.8219659
(2011-Nov-05.32196590)
n/a JED
period 1390.1206903
3.81
n/a
n/a
d
yr
n 0.25897032 n/a deg/d
Q 2.9516683 n/a AU
  Orbit Determination Parameters
   # obs. used (total)      96  
   first obs. used      2004-??-??  
   last obs. used      2013-01-10  
   # oppositions      6  
   planetary ephem.      DE403  
   condition code      1  
   fit RMS      0.57  
   data source      MPC:mpu  
   producer      MPCLINUX  

Additional Information
 T_jup = 3.412 

Ephemeris | Orbit Diagram | Orbital Elements | Physical Parameters | Discovery Circumstances ]

Physical Parameter Table
Parameter Symbol Value Units Sigma Reference Notes
absolute magnitude H 16.9 mag n/a MPO251759  

281698 (2008 WU63)          Discovered 2008-Nov-23 by Molnar, L. A. at Calvin-Rehoboth (G98)
Reference: 20110615/Numbers.arcLast Updated: 2011-06-23
Ephemeris | Orbit Diagram | Orbital Elements | Physical Parameters | Discovery Circumstances ]
ABOUT SSD CREDITS/AWARDS PRIVACY/COPYRIGHT GLOSSARY LINKS
FirstGov 2013-May-24 17:47 UT
(server date/time)  
NASA Home Page
Site Manager:   Donald K. Yeomans
Webmaster  Alan B. Chamberlin